User: anonymous   Login
Location: Unspecified
(0.0000°N, 0.0000°E)
Time: 17:25:58
(UTC+02:00)
Language:

GPS 2-05 Rocket1 - Orbit

View from above orbital plane
View from above orbital plane
View from above satellite
View from above satellite

Ground track
Ground track

The orbit data is extracted from the following two-line orbital elements,

1 20362U 89097B   15144.84782220  .00009609  00000-0  25038-3 0  9999
2 20362 035.6132 055.3737 0089466 270.3369 142.2435 15.34065845383150
Epoch (UTC): 24 May 2015 20:20:51
Eccentricity: 0.0089466
inclination: 35.6132°
perigee height: 402 km
apogee height: 525 km
right ascension of ascending node: 55.3737°
argument of perigee: 270.3369°
revolutions per day: 15.34065845
mean anomaly at epoch: 142.2435°
orbit number at epoch: 38315

The dashed part of the orbit path shows where the satellite is in the earth's shadow,  

DLR